AAY2818 KBNA-KSFB

Flight info

Callsign AAY2818
Flight time 1h 24m
Altitude 35000
Route TIPPN4 DENST THRSR Q79 ZPLEN BIGDE SHREK2
Aircraft B38M/M-SDE1FGHILORVWXY/HB1

Departure

Time 2026-05-07 21:41
Airport Nashville International Airport (KBNA)

Arrival

Time 2026-05-07 23:06
Airport Orlando Sanford International Airport (KSFB)
Time Latitude Longitude Altitude Speed Heading
2026-05-07 21:04 36.12832 -86.67078 573 ft 0 kts 69°
2026-05-07 21:30 36.12824 -86.67098 576 ft 4 kts 46°
2026-05-07 21:31 36.12804 -86.67110 572 ft 4 kts 351°
2026-05-07 21:31 36.12790 -86.67100 572 ft 1 kts 308°
2026-05-07 21:31 36.12788 -86.67096 572 ft 0 kts 308°
2026-05-07 21:34 36.12790 -86.67100 572 ft 2 kts 308°
2026-05-07 21:34 36.12809 -86.67131 572 ft 7 kts 308°
2026-05-07 21:35 36.12847 -86.67192 571 ft 11 kts 305°
2026-05-07 21:35 36.12840 -86.67287 572 ft 13 kts 229°
2026-05-07 21:35 36.12769 -86.67370 575 ft 14 kts 221°
2026-05-07 21:35 36.12751 -86.67474 573 ft 14 kts 304°
2026-05-07 21:36 36.12818 -86.67564 574 ft 15 kts 313°
2026-05-07 21:36 36.12895 -86.67663 573 ft 17 kts 313°
2026-05-07 21:36 36.12980 -86.67776 574 ft 18 kts 313°
2026-05-07 21:36 36.13064 -86.67887 576 ft 16 kts 312°
2026-05-07 21:37 36.13041 -86.67962 576 ft 12 kts 198°
2026-05-07 21:37 36.12956 -86.67996 578 ft 14 kts 198°
2026-05-07 21:37 36.12863 -86.68031 582 ft 14 kts 197°
2026-05-07 21:37 36.12769 -86.68067 582 ft 15 kts 197°
2026-05-07 21:38 36.12657 -86.68108 578 ft 19 kts 196°
2026-05-07 21:38 36.12524 -86.68156 578 ft 21 kts 195°
2026-05-07 21:38 36.12380 -86.68206 580 ft 22 kts 196°
2026-05-07 21:38 36.12231 -86.68258 580 ft 22 kts 196°
2026-05-07 21:39 36.12088 -86.68311 583 ft 22 kts 196°
2026-05-07 21:39 36.11944 -86.68361 588 ft 21 kts 195°
2026-05-07 21:39 36.11815 -86.68406 594 ft 18 kts 196°
2026-05-07 21:39 36.11742 -86.68473 601 ft 10 kts 260°
2026-05-07 21:40 36.11746 -86.68523 606 ft 4 kts 283°
2026-05-07 21:40 36.11761 -86.68589 617 ft 11 kts 287°
2026-05-07 21:40 36.11794 -86.68632 606 ft 5 kts 358°
2026-05-07 21:40 36.11824 -86.68625 615 ft 14 kts 16°
2026-05-07 21:41 36.12209 -86.68476 589 ft 101 kts 17°
2026-05-07 21:41 36.13111 -86.68126 593 ft 166 kts 18°
2026-05-07 21:41 36.14278 -86.67614 1170 ft 183 kts 20°
2026-05-07 21:41 36.15244 -86.66687 2388 ft 174 kts 49°
2026-05-07 21:42 36.16057 -86.65476 3103 ft 193 kts 47°
2026-05-07 21:42 36.16973 -86.64112 3660 ft 221 kts 48°
2026-05-07 21:42 36.17997 -86.62553 4287 ft 244 kts 49°
2026-05-07 21:42 36.19099 -86.60851 5069 ft 262 kts 49°
2026-05-07 21:43 36.20260 -86.59047 6036 ft 270 kts 49°
2026-05-07 21:43 36.21440 -86.57175 6793 ft 282 kts 52°
2026-05-07 21:43 36.22180 -86.54936 6774 ft 284 kts 82°
2026-05-07 21:43 36.22011 -86.52538 6907 ft 288 kts 105°
2026-05-07 21:44 36.21435 -86.50146 6944 ft 291 kts 105°
2026-05-07 21:44 36.20857 -86.47745 7004 ft 292 kts 106°
2026-05-07 21:44 36.19928 -86.45509 7394 ft 292 kts 134°
2026-05-07 21:44 36.18322 -86.44024 8329 ft 292 kts 159°
2026-05-07 21:45 36.16351 -86.43391 9111 ft 294 kts 182°
2026-05-07 21:45 36.14318 -86.43396 10128 ft 294 kts 187°
2026-05-07 21:45 36.12217 -86.43441 10741 ft 310 kts 188°
2026-05-07 21:45 36.09992 -86.43513 11211 ft 330 kts 188°
2026-05-07 21:46 36.07612 -86.43604 11602 ft 352 kts 188°
2026-05-07 21:46 36.05112 -86.43710 12152 ft 365 kts 188°
2026-05-07 21:46 36.02546 -86.43825 12899 ft 371 kts 189°
2026-05-07 21:46 35.99953 -86.43944 13746 ft 375 kts 189°
2026-05-07 21:47 35.97332 -86.44064 14480 ft 379 kts 189°
2026-05-07 21:47 35.94692 -86.44186 15183 ft 382 kts 190°
2026-05-07 21:47 35.92029 -86.44309 15885 ft 385 kts 190°
2026-05-07 21:47 35.89334 -86.44434 16589 ft 389 kts 191°
2026-05-07 21:48 35.86622 -86.44559 17249 ft 392 kts 191°
2026-05-07 21:48 35.83878 -86.44685 17960 ft 395 kts 191°
2026-05-07 21:48 35.81121 -86.44813 18572 ft 399 kts 191°
2026-05-07 21:48 35.78333 -86.44941 19151 ft 401 kts 191°
2026-05-07 21:49 35.75535 -86.45070 19739 ft 404 kts 192°
2026-05-07 21:49 35.72756 -86.45198 20321 ft 406 kts 192°
2026-05-07 21:49 35.69925 -86.45328 20874 ft 408 kts 192°
2026-05-07 21:49 35.67082 -86.45460 21425 ft 410 kts 192°
2026-05-07 21:50 35.64217 -86.45591 21998 ft 413 kts 193°
2026-05-07 21:50 35.61336 -86.45723 22560 ft 415 kts 193°
2026-05-07 21:50 35.58403 -86.45437 23120 ft 436 kts 178°
2026-05-07 21:50 35.55435 -86.44526 23717 ft 439 kts 178°
2026-05-07 21:51 35.52458 -86.43616 24100 ft 443 kts 177°
2026-05-07 21:51 35.49456 -86.42677 24547 ft 446 kts 178°
2026-05-07 21:51 35.46442 -86.41725 24960 ft 450 kts 178°
2026-05-07 21:51 35.43399 -86.40761 25332 ft 452 kts 179°
2026-05-07 21:52 35.40351 -86.39674 25728 ft 467 kts 171°
2026-05-07 21:52 35.37431 -86.37719 26255 ft 492 kts 156°
2026-05-07 21:52 35.34752 -86.35002 26684 ft 504 kts 150°
2026-05-07 21:52 35.32091 -86.32178 27014 ft 508 kts 150°
2026-05-07 21:53 35.29419 -86.29311 27426 ft 512 kts 150°
2026-05-07 21:53 35.26732 -86.26410 27753 ft 517 kts 150°
2026-05-07 21:53 35.24070 -86.23536 28171 ft 520 kts 150°
2026-05-07 21:53 35.21315 -86.20561 28573 ft 523 kts 151°
2026-05-07 21:54 35.18621 -86.17654 28839 ft 525 kts 151°
2026-05-07 21:54 35.15877 -86.14697 29282 ft 525 kts 151°
2026-05-07 21:54 35.13140 -86.11750 29731 ft 525 kts 152°
2026-05-07 21:54 35.10378 -86.08781 29953 ft 531 kts 152°
2026-05-07 21:55 35.07605 -86.05799 30298 ft 532 kts 152°
2026-05-07 21:55 35.04817 -86.02807 30551 ft 536 kts 151°
2026-05-07 21:55 35.02010 -85.99795 30859 ft 537 kts 152°
2026-05-07 21:55 34.99198 -85.96783 31163 ft 540 kts 152°
2026-05-07 21:56 34.96378 -85.93762 31527 ft 539 kts 151°
2026-05-07 21:56 34.93572 -85.90758 31925 ft 536 kts 152°
2026-05-07 21:56 34.90766 -85.87764 32274 ft 536 kts 151°
2026-05-07 21:56 34.87967 -85.84774 32720 ft 533 kts 151°
2026-05-07 21:57 34.85184 -85.81806 33129 ft 531 kts 151°
2026-05-07 21:57 34.82405 -85.78845 33565 ft 529 kts 152°
2026-05-07 21:57 34.79638 -85.75898 34015 ft 527 kts 152°
2026-05-07 21:57 34.76919 -85.72894 34362 ft 531 kts 148°
2026-05-07 21:58 34.74260 -85.69775 34679 ft 531 kts 149°
2026-05-07 21:58 34.71589 -85.66677 34942 ft 530 kts 149°
2026-05-07 21:58 34.66233 -85.60495 34976 ft 529 kts 149°
2026-05-07 21:59 34.60905 -85.54359 35001 ft 528 kts 148°
2026-05-07 21:59 34.56483 -85.49276 34970 ft 526 kts 148°
2026-05-07 22:00 34.51161 -85.43168 34978 ft 526 kts 148°
2026-05-07 22:00 34.45817 -85.37049 34979 ft 533 kts 148°
2026-05-07 22:01 34.40411 -85.30867 34970 ft 534 kts 148°
2026-05-07 22:01 34.34999 -85.24691 34989 ft 535 kts 148°
2026-05-07 22:02 34.29574 -85.18510 35000 ft 535 kts 148°
2026-05-07 22:02 34.24153 -85.12348 34995 ft 535 kts 148°
2026-05-07 22:03 34.18736 -85.06200 34989 ft 535 kts 148°
2026-05-07 22:03 34.13293 -85.00035 35003 ft 537 kts 148°
2026-05-07 22:04 34.07867 -84.93896 35023 ft 530 kts 148°
2026-05-07 22:04 34.02527 -84.87873 35000 ft 523 kts 148°
2026-05-07 22:05 33.97208 -84.81881 34996 ft 524 kts 148°
2026-05-07 22:05 33.91911 -84.75925 34983 ft 523 kts 148°
2026-05-07 22:06 33.86613 -84.69976 34915 ft 524 kts 148°
2026-05-07 22:06 33.81288 -84.64009 34989 ft 523 kts 148°
2026-05-07 22:07 33.75979 -84.58072 34977 ft 520 kts 148°
2026-05-07 22:07 33.70676 -84.52149 34988 ft 520 kts 148°
2026-05-07 22:08 33.65367 -84.46245 34989 ft 518 kts 150°
2026-05-07 22:08 33.62508 -84.43790 34958 ft 491 kts 166°
2026-05-07 22:08 33.59423 -84.42291 35011 ft 474 kts 173°
2026-05-07 22:09 33.53185 -84.39632 34952 ft 476 kts 174°
2026-05-07 22:09 33.46891 -84.37069 35004 ft 478 kts 174°
2026-05-07 22:10 33.40632 -84.34559 35001 ft 477 kts 174°
2026-05-07 22:10 33.34344 -84.32042 35010 ft 477 kts 174°
2026-05-07 22:11 33.28048 -84.29526 34997 ft 477 kts 174°
2026-05-07 22:11 33.21747 -84.27013 34988 ft 477 kts 174°
2026-05-07 22:12 33.15442 -84.24501 34975 ft 478 kts 174°
2026-05-07 22:12 33.09129 -84.21990 34964 ft 478 kts 174°
2026-05-07 22:13 33.02815 -84.19482 34978 ft 478 kts 174°
2026-05-07 22:13 32.96510 -84.16981 34974 ft 477 kts 174°
2026-05-07 22:14 32.90212 -84.14488 34979 ft 477 kts 174°
2026-05-07 22:14 32.83957 -84.12009 34992 ft 477 kts 174°
2026-05-07 22:15 32.77657 -84.09528 34953 ft 477 kts 174°
2026-05-07 22:15 32.71357 -84.07044 34930 ft 477 kts 174°
2026-05-07 22:16 32.65049 -84.04562 34938 ft 478 kts 174°
2026-05-07 22:16 32.58746 -84.02084 34947 ft 477 kts 174°
2026-05-07 22:17 32.52433 -83.99607 34961 ft 477 kts 174°
2026-05-07 22:17 32.46127 -83.97136 34930 ft 477 kts 174°
2026-05-07 22:18 32.36711 -83.93453 34955 ft 477 kts 174°
2026-05-07 22:19 32.30415 -83.90996 34929 ft 477 kts 174°
2026-05-07 22:19 32.24125 -83.88543 34940 ft 475 kts 173°
2026-05-07 22:20 32.17855 -83.86104 34903 ft 475 kts 173°
2026-05-07 22:20 32.11551 -83.83652 34949 ft 478 kts 172°
2026-05-07 22:21 32.05234 -83.81200 34940 ft 477 kts 172°
2026-05-07 22:21 31.98918 -83.78752 34948 ft 477 kts 172°
2026-05-07 22:22 31.92605 -83.76309 34944 ft 477 kts 172°
2026-05-07 22:22 31.86300 -83.73873 34961 ft 479 kts 172°
2026-05-07 22:23 31.79953 -83.71422 34950 ft 479 kts 172°
2026-05-07 22:23 31.73619 -83.68981 34947 ft 479 kts 172°
2026-05-07 22:24 31.67379 -83.66021 34938 ft 496 kts 158°
2026-05-07 22:24 31.61390 -83.61963 34932 ft 497 kts 159°
2026-05-07 22:25 31.55379 -83.57883 34980 ft 499 kts 159°
2026-05-07 22:25 31.49382 -83.53805 35007 ft 499 kts 159°
2026-05-07 22:26 31.43378 -83.49729 34994 ft 500 kts 159°
2026-05-07 22:26 31.37366 -83.45652 34990 ft 499 kts 159°
2026-05-07 22:27 31.31372 -83.41597 34984 ft 502 kts 159°
2026-05-07 22:27 31.25350 -83.37526 34994 ft 495 kts 159°
2026-05-07 22:28 31.19343 -83.33446 34989 ft 500 kts 159°
2026-05-07 22:28 31.13329 -83.29415 34921 ft 498 kts 159°
2026-05-07 22:29 31.07309 -83.25367 34970 ft 501 kts 159°
2026-05-07 22:29 31.01278 -83.21311 34972 ft 501 kts 158°
2026-05-07 22:30 30.95239 -83.17260 34957 ft 500 kts 158°
2026-05-07 22:30 30.89202 -83.13220 34960 ft 500 kts 158°
2026-05-07 22:31 30.83183 -83.09192 34935 ft 502 kts 158°
2026-05-07 22:31 30.77158 -83.05163 34949 ft 502 kts 158°
2026-05-07 22:32 30.71095 -83.01166 34951 ft 496 kts 162°
2026-05-07 22:32 30.64846 -82.97873 34967 ft 494 kts 163°
2026-05-07 22:33 30.58601 -82.94499 35018 ft 495 kts 163°
2026-05-07 22:33 30.52370 -82.91108 34960 ft 493 kts 163°
2026-05-07 22:34 30.46145 -82.87730 34971 ft 494 kts 163°
2026-05-07 22:34 30.39915 -82.84354 34984 ft 494 kts 163°
2026-05-07 22:35 30.33693 -82.80987 34988 ft 494 kts 163°
2026-05-07 22:35 30.27470 -82.77625 34989 ft 494 kts 163°
2026-05-07 22:35 30.24358 -82.75942 34816 ft 491 kts 163°
2026-05-07 22:36 30.21289 -82.74289 33765 ft 498 kts 162°
2026-05-07 22:36 30.18137 -82.72590 32492 ft 501 kts 163°
2026-05-07 22:36 30.14930 -82.70864 31709 ft 502 kts 163°
2026-05-07 22:36 30.11813 -82.69185 31137 ft 497 kts 163°
2026-05-07 22:37 30.08686 -82.67503 30437 ft 497 kts 163°
2026-05-07 22:37 30.05534 -82.65808 29387 ft 502 kts 163°
2026-05-07 22:37 30.02350 -82.64098 28266 ft 508 kts 163°
2026-05-07 22:37 29.99138 -82.62373 27355 ft 508 kts 162°
2026-05-07 22:38 29.95929 -82.60652 26418 ft 509 kts 162°
2026-05-07 22:38 29.92727 -82.58935 25695 ft 506 kts 162°
2026-05-07 22:38 29.89541 -82.57229 24929 ft 503 kts 162°
2026-05-07 22:38 29.86369 -82.55531 24205 ft 501 kts 162°
2026-05-07 22:39 29.83214 -82.53844 23434 ft 500 kts 162°
2026-05-07 22:39 29.80062 -82.52159 22631 ft 496 kts 161°
2026-05-07 22:39 29.76946 -82.50494 22017 ft 489 kts 161°
2026-05-07 22:39 29.73871 -82.48854 21242 ft 487 kts 161°
2026-05-07 22:40 29.70842 -82.47237 20445 ft 473 kts 161°
2026-05-07 22:40 29.67899 -82.45668 19683 ft 459 kts 161°
2026-05-07 22:40 29.65009 -82.44130 19025 ft 457 kts 161°
2026-05-07 22:40 29.62119 -82.42591 18339 ft 457 kts 161°
2026-05-07 22:41 29.59228 -82.41053 17545 ft 457 kts 161°
2026-05-07 22:41 29.56360 -82.39528 16980 ft 451 kts 160°
2026-05-07 22:41 29.53514 -82.38015 16246 ft 449 kts 160°
2026-05-07 22:41 29.50727 -82.36535 15514 ft 438 kts 160°
2026-05-07 22:42 29.48012 -82.35095 14924 ft 434 kts 160°
2026-05-07 22:42 29.45285 -82.33649 14420 ft 430 kts 160°
2026-05-07 22:42 29.42590 -82.32220 13944 ft 423 kts 160°
2026-05-07 22:42 29.39933 -82.30812 13369 ft 418 kts 160°
2026-05-07 22:43 29.37308 -82.29421 12694 ft 408 kts 159°
2026-05-07 22:43 29.34800 -82.28094 12466 ft 384 kts 159°
2026-05-07 22:43 29.32453 -82.26853 12321 ft 361 kts 160°
2026-05-07 22:43 29.30242 -82.25685 12128 ft 340 kts 160°
2026-05-07 22:44 29.28146 -82.24582 11933 ft 323 kts 160°
2026-05-07 22:44 29.26145 -82.23529 11794 ft 312 kts 160°
2026-05-07 22:44 29.24199 -82.22504 11643 ft 303 kts 160°
2026-05-07 22:44 29.22310 -82.21511 11497 ft 295 kts 160°
2026-05-07 22:45 29.20439 -82.20527 11362 ft 299 kts 160°
2026-05-07 22:45 29.19176 -82.19863 11277 ft 305 kts 160°
2026-05-07 22:45 29.17233 -82.18841 11139 ft 310 kts 160°
2026-05-07 22:45 29.15348 -82.17628 10974 ft 315 kts 143°
2026-05-07 22:46 29.13921 -82.15714 10833 ft 318 kts 127°
2026-05-07 22:46 29.12645 -82.13637 10734 ft 320 kts 128°
2026-05-07 22:46 29.11360 -82.11556 10588 ft 320 kts 128°
2026-05-07 22:46 29.10085 -82.09480 10438 ft 318 kts 127°
2026-05-07 22:47 29.08817 -82.07411 10298 ft 317 kts 127°
2026-05-07 22:47 29.07572 -82.05378 10164 ft 309 kts 127°
2026-05-07 22:47 29.06348 -82.03380 10034 ft 305 kts 127°
2026-05-07 22:47 29.05133 -82.01396 9898 ft 304 kts 127°
2026-05-07 22:48 29.03919 -81.99413 9758 ft 304 kts 127°
2026-05-07 22:48 29.02707 -81.97436 9612 ft 303 kts 127°
2026-05-07 22:48 29.01498 -81.95465 9484 ft 301 kts 127°
2026-05-07 22:48 29.00299 -81.93509 9349 ft 301 kts 127°
2026-05-07 22:49 28.99095 -81.91555 9191 ft 299 kts 128°
2026-05-07 22:49 28.97893 -81.89615 9051 ft 298 kts 127°
2026-05-07 22:49 28.96712 -81.87706 8925 ft 297 kts 127°
2026-05-07 22:49 28.95519 -81.85779 8811 ft 297 kts 127°
2026-05-07 22:50 28.94332 -81.83864 8657 ft 295 kts 127°
2026-05-07 22:50 28.93150 -81.81958 8513 ft 294 kts 127°
2026-05-07 22:50 28.91970 -81.80057 8402 ft 293 kts 128°
2026-05-07 22:50 28.90796 -81.78163 8289 ft 293 kts 128°
2026-05-07 22:51 28.89625 -81.76255 8147 ft 292 kts 124°
2026-05-07 22:51 28.88755 -81.74164 7989 ft 293 kts 111°
2026-05-07 22:51 28.88101 -81.71960 7874 ft 293 kts 110°
2026-05-07 22:51 28.87462 -81.69753 7783 ft 293 kts 109°
2026-05-07 22:52 28.86823 -81.67552 7631 ft 291 kts 109°
2026-05-07 22:52 28.86191 -81.65364 7465 ft 289 kts 109°
2026-05-07 22:52 28.85561 -81.63193 7347 ft 289 kts 110°
2026-05-07 22:52 28.84931 -81.61016 7229 ft 289 kts 109°
2026-05-07 22:53 28.84394 -81.58814 7093 ft 288 kts 98°
2026-05-07 22:53 28.84312 -81.56557 6806 ft 286 kts 89°
2026-05-07 22:53 28.84365 -81.54293 6516 ft 282 kts 88°
2026-05-07 22:53 28.84429 -81.52055 6172 ft 283 kts 88°
2026-05-07 22:54 28.84503 -81.49808 5794 ft 283 kts 88°
2026-05-07 22:54 28.84583 -81.47582 5547 ft 279 kts 88°
2026-05-07 22:54 28.84666 -81.45374 5256 ft 277 kts 88°
2026-05-07 22:54 28.84753 -81.43176 4922 ft 278 kts 88°
2026-05-07 22:55 28.84846 -81.40979 4661 ft 276 kts 88°
2026-05-07 22:55 28.84936 -81.38809 4449 ft 271 kts 88°
2026-05-07 22:55 28.85025 -81.36658 4090 ft 272 kts 88°
2026-05-07 22:55 28.85110 -81.34501 3713 ft 274 kts 88°
2026-05-07 22:56 28.85179 -81.32367 3479 ft 272 kts 88°
2026-05-07 22:56 28.85235 -81.30209 3180 ft 272 kts 88°
2026-05-07 22:56 28.85294 -81.28047 2896 ft 272 kts 88°
2026-05-07 22:56 28.85359 -81.25910 2857 ft 270 kts 88°
2026-05-07 22:57 28.85430 -81.23762 2823 ft 272 kts 88°
2026-05-07 22:57 28.85503 -81.21594 2842 ft 270 kts 88°
2026-05-07 22:57 28.85563 -81.19469 2807 ft 273 kts 88°
2026-05-07 22:57 28.85611 -81.17311 2850 ft 271 kts 88°
2026-05-07 22:58 28.85666 -81.15162 2805 ft 272 kts 88°
2026-05-07 22:58 28.85719 -81.13001 2781 ft 274 kts 88°
2026-05-07 22:58 28.85773 -81.10863 2734 ft 264 kts 88°
2026-05-07 22:58 28.85827 -81.08803 2629 ft 255 kts 88°
2026-05-07 22:59 28.85881 -81.06816 2516 ft 246 kts 88°
2026-05-07 22:59 28.85928 -81.04898 2286 ft 241 kts 88°
2026-05-07 22:59 28.85922 -81.03009 2104 ft 233 kts 99°
2026-05-07 22:59 28.85392 -81.01338 1927 ft 220 kts 126°
2026-05-07 23:00 28.84347 -81.00191 1762 ft 200 kts 156°
2026-05-07 23:00 28.83077 -80.99741 1567 ft 183 kts 178°
2026-05-07 23:00 28.81824 -80.99566 1624 ft 182 kts 178°
2026-05-07 23:00 28.80568 -80.99500 1646 ft 178 kts 196°
2026-05-07 23:01 28.79458 -81.00013 1613 ft 170 kts 216°
2026-05-07 23:01 28.78682 -81.00966 1570 ft 164 kts 248°
2026-05-07 23:01 28.78358 -81.02191 1680 ft 160 kts 263°
2026-05-07 23:01 28.78250 -81.03461 1713 ft 161 kts 268°
2026-05-07 23:02 28.78209 -81.04733 1649 ft 164 kts 270°
2026-05-07 23:02 28.78198 -81.06049 1565 ft 163 kts 271°
2026-05-07 23:02 28.78196 -81.07327 1595 ft 164 kts 271°
2026-05-07 23:02 28.78193 -81.08645 1607 ft 167 kts 270°
2026-05-07 23:03 28.78192 -81.09955 1703 ft 166 kts 270°
2026-05-07 23:03 28.78186 -81.11282 1623 ft 168 kts 269°
2026-05-07 23:03 28.78188 -81.12593 1599 ft 164 kts 271°
2026-05-07 23:03 28.78193 -81.13865 1413 ft 151 kts 269°
2026-05-07 23:04 28.78189 -81.15021 1214 ft 143 kts 269°
2026-05-07 23:04 28.78184 -81.16170 1005 ft 146 kts 270°
2026-05-07 23:04 28.78184 -81.17313 922 ft 143 kts 270°
2026-05-07 23:04 28.78182 -81.18456 809 ft 143 kts 268°
2026-05-07 23:05 28.78170 -81.19590 619 ft 144 kts 270°
2026-05-07 23:05 28.78174 -81.20725 336 ft 144 kts 270°
2026-05-07 23:05 28.78176 -81.21869 149 ft 142 kts 271°
2026-05-07 23:05 28.78175 -81.22908 57 ft 108 kts 270°
2026-05-07 23:06 28.78176 -81.23511 62 ft 44 kts 270°
2026-05-07 23:06 28.78175 -81.23773 68 ft 33 kts 271°
2026-05-07 23:06 28.78167 -81.24032 65 ft 27 kts 258°
2026-05-07 23:06 28.78104 -81.24176 60 ft 12 kts 238°
2026-05-07 23:07 28.78092 -81.24196 58 ft 2 kts 239°
2026-05-07 23:07 28.78071 -81.24247 64 ft 12 kts 254°
2026-05-07 23:07 28.78066 -81.24359 61 ft 17 kts 270°
2026-05-07 23:07 28.78060 -81.24498 58 ft 16 kts 250°
2026-05-07 23:08 28.77972 -81.24534 57 ft 14 kts 182°
2026-05-07 23:08 28.77875 -81.24533 51 ft 13 kts 179°
2026-05-07 23:08 28.77789 -81.24531 55 ft 9 kts 170°
2026-05-07 23:08 28.77747 -81.24489 56 ft 8 kts 130°
2026-05-07 23:09 28.77713 -81.24458 53 ft 5 kts 156°
2026-05-07 23:09 28.77687 -81.24449 56 ft 4 kts 170°
2026-05-07 23:09 28.77660 -81.24447 55 ft 4 kts 179°
2026-05-07 23:09 28.77632 -81.24448 58 ft 4 kts 193°
2026-05-07 23:10 28.77623 -81.24465 64 ft 2 kts 267°
2026-05-07 23:10 28.77623 -81.24477 64 ft 1 kts 268°
2026-05-07 23:10 28.77623 -81.24479 64 ft 0 kts 268°